OBJECT D

Satellite information

Favourite Embed

Satellite Type and Status

UNKNOWNIN ORBIT

Key statistics

Satellite OBJECT D at a glance.

Uptime

674

Days in orbit

Revolutions

≈ 14.0

Per day

Orbit

LEO

Low Earth Orbit

Inclination

67.1

Latest

Satellite identification and parameters

Extended collection of information and parameters for OBJECT D.

Object identification

Identified? True

Debris? False

Object name: OBJECT D

International designator: 2023-165D

Object number (NORAD): 58428

Object ID (CCSDS): 58428

Country: COMMONWEALTH OF INDEPENDENT STATES (CIS)

Current information (Y/N): Y

RCS size: MEDIUM

Orbital parameters

Period: 103.052 minutes

Inclination: 67.1471 deg

SMA: 7281.111 km

Apoapsis: 915.401 km

Periapsis: 890.552 km

RAAN: 274.0439 deg

Eccentricy: 0.0017064

Argument of periapsis: 218.6032 deg

Mean anomaly: 141.3834 deg

Mean motion: 13.97353464 rev/day

Mean motion (dot): 0.00000014 rev/day2

B* drag term: 0.000063543 1/REarth

Two-line elements (TLE)

Creation date: Aug. 30, 2025, 7:16 p.m.

Reference frame: TEME

Reference center: EARTH

Epoch: Aug. 30, 2025, 4:30 p.m. UTC

TLE line 0: 0 OBJECT D

TLE line 1: 1 58428U 23165D 25242.68777463 .00000014 00000-0 63543-4 0 9997

TLE line 2: 2 58428 67.1471 274.0439 0017064 218.6032 141.3834 13.97353464 90248

Live tracking on map

Real-time ground track for satellite OBJECT D.

In-orbit conjunctions

There are no conjunctions computed for OBJECT D, at the moment. Check back to stay up to date, as we update our databases every day.

Go to all conjunctions

Associated space launch

Note: Payload identity uncertain. Multiple other military payloads that are not identified may be on board. Lotos-S1 spacecraft is a part of the Liana constellation, designed for orbital electronic intelligence.

OBJECT D was lifted into orbit during the mission ‘Soyuz 2.1b | Kosmos 2570 (Lotos-S1 #8)’, on board a Soyuz 2.1b space rocket.

The launch took place on Oct. 27, 2023, 6:04 a.m. from 43/3 (43L).

For more information about the launch, click the button.

Launch to space Soyuz 2.1b | Kosmos 2570 (Lotos-S1 #8)
Soyuz 2.1b | Kosmos 2570 (Lotos-S1 #8)

Agency: N/A

Status: Launch Successful

Launch date: Oct. 27, 2023, 6:04 a.m. UTC

Rocket: Soyuz 2.1b

Launch pad: 43/3 (43L)

Location: Plesetsk Cosmodrome, Russian Federation

...

Latest news about this satellite

There are no fresh news available about this satellite. Check back as we update our databases every day.


Newsletter sign-up

Weekly statistics, charts and insights to help you stay on top of the space industry.